Other Surface Observations
Issued by NWS Charleston, SC

Home | Current Version | Previous Version | Text Only | Print | Product List | Glossary On
Versions: 1 2 3 4 5 6 7 8 9 10 11 12 13 14 15 16 17 18 19 20 21 22 23 24 25 26 27 28 29 30 31 32 33 34 35 36 37 38 39 40 41 42 43 44 45 46 47 48 49 50
132
SXUS52 KCHS 270027
OSOCHS

MARINE OBSERVATIONS
NATIONAL WEATHER SERVICE CHARLESTON SC
800 PM EDT SUN MAR 26 2017

...DOWNTOWN CHARLESTON AND HARBOR...

CITY           SKY/WX    TMP DP  RH WIND       PRES   REMARKS
WATERFRONT PRK   N/A     68  62  81 S7        30.14R

...LAKE MOULTRIE...

CITY           SKY/WX    TMP DP  RH WIND       PRES   REMARKS
PINOPOLIS        N/A     72  57  60 VRB3      30.06S

...LAKE AND SUPPLEMENTAL COASTAL OBSERVATIONS...

STATION/POSITION TIME  TEMP    WIND        PRES    WAVE   SWELL
                       AIR SEA DIR/SP/G            HT/PER HT/PER/DIR
                 (UTC) (F)     (DEG/KT/KT) (MB)    (FT/S) (FT/S/D)
FORT PULASKI     0000   66 63  140/  4/  7 1020.8
SAPELO ISLAND    0000   66     130/  5     1020.0
WINYAH BAY       2345   65     140/  7     1021.0S
LAKE MURRAY      0020   69     150/ 11/ 13 1018.6
ACE BASIN NERRS  2345   67        CALM     1020.0F


...C-MAN AND BUOY OBSERVATIONS...

STATION/POSITION TIME  TEMP    WIND        PRES    WAVE   SWELL
                       AIR SEA DIR/SP/G            HT/PER HT/PER/DIR
                 (UTC) (F)     (DEG/KT/KT) (MB)    (FT/S) (FT/S/D)
BUOY 41004       2350   72 74  140/ 12/ 16 1020.6F   4/ 8   3/130/ 8
BUOY 41008       2350   65 63  130/ 12/ 14 1019.6S   4/10   3/110/10
FOLLY BEACH CMAN 0000   66     150/  9/  9 1021.4F
CAPERS NS BUOY   0008   65     160/  4/  6 1020.8F
FRIPP NS BUOY    0008   63 61  180/  2/  6 1020.4R
5E ST. MARYS GA  0000      66                N/A     3/ 9


STATION/POSITION TIME  TEMP    WIND        PRES    WAVE   SWELL
                       AIR SEA DIR/SP/G            HT/PER HT/PER/DIR
                 (UTC) (F)     (DEG/KT/KT) (MB)    (FT/S) (FT/S/D)
FRYING PAN BUOY  0010   71 76  140/ 12/ 17 1021.9
BUOY 41025       2350   70 76  150/ 10/ 14 1023.4R   3/ 8   3/120/ 8
CAPE LOOKOUT NC  0000   66     180/  5/  5 1022.9R
BUOY 41002       2350   68 72   80/ 10/ 12 1022.9R   5/ 8   5/120/ 8
BUOY 41010       NOT AVBL
ST AUGUSTINE FL  0000   68 71   90/  6/  6 1020.7R

$$




USA.gov is the U.S. government's official web portal to all federal, state and local government web resources and services.